Voltar ao catálogo

THORAD AGENA D DEB

AtivoLEO
NORAD 4759·DEBRIS·🇺🇸 United States

Lançado Apr 8, 1970 de Vandenberg Space Force Base

Loading…

Próximas Passagens

TLE

Source: Space-Track
1 04759U 70025DH  26229.97824986  .00000487  00000-0  55198-3 0  9993
2 04759 100.0554 242.2044 0003365  95.4723 293.7053 13.76068354803426

Acompanhe THORAD AGENA D DEB em tempo real com AllMySat

Download on the App Store